Weather History for KGUC - August, 2013

Change the Weather History Date:

Tuesday, August 6, 2013

  Actual Average Record
Temperature  
Mean Temperature 60 °F -  
Max Temperature 73 °F 76 °F 84 °F (2003)
Min Temperature 48 °F 43 °F 35 °F (1996)
Degree Days  
Heating Degree Days 4    
Growing Degree Days 10 (Base 50)    
Moisture  
Dew Point 46 °F    
Average Humidity 65    
Maximum Humidity 82    
Minimum Humidity 27    
Precipitation  
Precipitation 0.03 in - - ()
Sea Level Pressure  
Sea Level Pressure 30.35 in    
Wind  
Wind Speed 6 mph (North)    
Max Wind Speed 20 mph    
Max Gust Speed 23 mph    
Visibility 10 miles    
Events Thunderstorm    
Averages and records for this station are not official NWS values.
T = Trace of Precipitation, MM = Missing Value Source: NWS Daily Summary

Daily Weather History Graph

Daily Weather History Graph

Search for Another Location

Airport or City:

Trip Planner

Search our weather history database for the weather conditions in past years. The results will help you decide how hot, cold, wet, or windy it might be!

Date:

Astronomy

Aug. 06, 2013 Rise Set
Actual Time 6:14 AM MDT 8:12 PM MDT
Civil Twilight 5:45 AM MDT 8:41 PM MDT
Nautical Twilight 5:09 AM MDT 9:16 PM MDT
Astronomical Twilight 4:31 AM MDT 9:54 PM MDT
Moon 6:07 AM MDT (8/6) 7:49 PM MDT (8/6)
Length of Visible Light 14h 56m
Length of Day
13h 58m
Waning Crescent, 0% of the Moon is Illuminated
Aug 6
Waning Crescent
Aug 6
New
Aug 14
First Quarter
Aug 20
Full
Aug 28
Last Quarter

Hourly Weather History & Observations

Time (MDT) Temp. Dew Point Humidity Pressure Visibility Wind Dir Wind Speed Gust Speed Precip Events Conditions
12:35 AM 57.2 °F 46.4 °F 67% 30.36 in 10.0 mi North 8.1 mph - N/A   Clear
12:55 AM 55.4 °F 46.4 °F 72% 30.36 in 10.0 mi North 9.2 mph - N/A   Clear
1:15 AM 55.4 °F 46.4 °F 72% 30.36 in 10.0 mi North 8.1 mph - N/A   Clear
1:35 AM 55.4 °F 46.4 °F 72% 30.36 in 10.0 mi North 8.1 mph - N/A   Clear
1:55 AM 53.6 °F 44.6 °F 72% 30.35 in 10.0 mi NNE 4.6 mph - N/A   Clear
2:15 AM 53.6 °F 44.6 °F 72% 30.35 in 10.0 mi North 5.8 mph - N/A   Clear
2:35 AM 53.6 °F 44.6 °F 72% 30.35 in 10.0 mi North 8.1 mph - N/A   Clear
2:55 AM 53.6 °F 44.6 °F 72% 30.34 in 10.0 mi North 11.5 mph - N/A   Clear
3:15 AM 53.6 °F 44.6 °F 72% 30.34 in 10.0 mi North 8.1 mph - N/A   Clear
3:35 AM 53.6 °F 44.6 °F 72% 30.34 in 10.0 mi NNE 3.5 mph - N/A   Clear
3:55 AM 53.6 °F 44.6 °F 72% 30.34 in 10.0 mi Calm Calm - N/A   Clear
4:15 AM 53.6 °F 44.6 °F 72% 30.34 in 10.0 mi ESE 3.5 mph - N/A   Clear
4:35 AM 51.8 °F 44.6 °F 76% 30.34 in 10.0 mi North 4.6 mph - N/A   Clear
4:55 AM 51.8 °F 44.6 °F 76% 30.34 in 10.0 mi NNW 4.6 mph - N/A   Clear
5:15 AM 51.8 °F 44.6 °F 76% 30.35 in 10.0 mi Calm Calm - N/A   Clear
5:35 AM 51.8 °F 42.8 °F 71% 30.35 in 9.0 mi Calm Calm - N/A   Clear
5:55 AM 50.0 °F 42.8 °F 76% 30.36 in 10.0 mi Calm Calm - N/A   Clear
6:15 AM 50.0 °F 44.6 °F 82% 30.35 in 10.0 mi Calm Calm - N/A   Clear
6:55 AM 48.2 °F 42.8 °F 82% 30.36 in 10.0 mi Calm Calm - N/A   Clear
7:15 AM 50.0 °F 44.6 °F 82% 30.36 in 10.0 mi North 4.6 mph - N/A   Clear
7:35 AM 51.8 °F 44.6 °F 76% 30.37 in 10.0 mi North 4.6 mph - N/A   Clear
7:55 AM 53.6 °F 44.6 °F 72% 30.37 in 10.0 mi North 3.5 mph - N/A   Clear
8:15 AM 55.4 °F 46.4 °F 72% 30.38 in 10.0 mi Calm Calm - N/A   Clear
8:35 AM 55.4 °F 46.4 °F 72% 30.38 in 10.0 mi Calm Calm - N/A   Clear
8:55 AM 55.4 °F 46.4 °F 72% 30.38 in 10.0 mi Calm Calm - N/A   Clear
9:15 AM 57.2 °F 46.4 °F 67% 30.38 in 10.0 mi Calm Calm - N/A   Clear
9:35 AM 57.2 °F 46.4 °F 67% 30.37 in 10.0 mi Calm Calm - N/A   Clear
9:55 AM 60.8 °F 46.4 °F 59% 30.37 in 10.0 mi Calm Calm - N/A   Clear
10:15 AM 60.8 °F 46.4 °F 59% 30.37 in 10.0 mi Calm Calm - N/A   Clear
10:35 AM 62.6 °F 46.4 °F 55% 30.36 in 10.0 mi Calm Calm - N/A   Clear
11:15 AM 66.2 °F 46.4 °F 49% 30.35 in 10.0 mi SSW 4.6 mph - N/A   Clear
11:35 AM 69.8 °F 48.2 °F 46% 30.34 in 10.0 mi WSW 8.1 mph - N/A   Clear
11:55 AM 69.8 °F 46.4 °F 43% 30.33 in 10.0 mi WSW 9.2 mph - N/A   Clear
12:15 PM 71.6 °F 48.2 °F 43% 30.32 in 10.0 mi WSW 9.2 mph - N/A   Clear
12:35 PM 71.6 °F 48.2 °F 43% 30.31 in 10.0 mi West 8.1 mph - N/A Thunderstorm Clear
12:55 PM 73.4 °F 48.2 °F 41% 30.30 in 8.0 mi SW 9.2 mph - N/A   Clear
1:15 PM 73.4 °F 44.6 °F 36% 30.28 in 10.0 mi WNW 15.0 mph 20.7 mph N/A   Clear
1:35 PM 73.4 °F 37.4 °F 27% 30.28 in 10.0 mi NW 9.2 mph - N/A   Clear
1:55 PM 73.4 °F 39.2 °F 29% 30.28 in 10.0 mi NNW 9.2 mph - N/A   Clear
2:15 PM 73.4 °F 39.2 °F 29% 30.29 in 10.0 mi North 12.7 mph - N/A   Clear
2:55 PM 69.8 °F 41.0 °F 35% 30.29 in 10.0 mi North 12.7 mph 21.9 mph N/A   Clear
3:15 PM 68.0 °F 42.8 °F 40% 30.30 in 10.0 mi North 13.8 mph 18.4 mph N/A   Clear
3:35 PM 68.0 °F 41.0 °F 37% 30.33 in 10.0 mi NE 17.3 mph - N/A   Mostly Cloudy
3:55 PM 64.4 °F 41.0 °F 42% 30.36 in 10.0 mi ESE 19.6 mph 23.0 mph N/A   Overcast
4:15 PM 62.6 °F 44.6 °F 52% 30.37 in 10.0 mi ESE 15.0 mph - N/A   Mostly Cloudy
4:35 PM 62.6 °F 44.6 °F 52% 30.37 in 10.0 mi ESE 8.1 mph - N/A   Mostly Cloudy
4:55 PM 62.6 °F 46.4 °F 55% 30.38 in 10.0 mi Calm Calm - N/A   Overcast
5:15 PM 60.8 °F 46.4 °F 59% 30.39 in 10.0 mi ENE 6.9 mph - N/A   Overcast
5:35 PM 59.0 °F 48.2 °F 67% 30.40 in 9.0 mi East 6.9 mph - N/A   Overcast
5:55 PM 57.2 °F 48.2 °F 72% 30.40 in 10.0 mi East 3.5 mph - 0.01 in   Overcast
6:55 PM 57.2 °F 48.2 °F 72% 30.39 in 10.0 mi Calm Calm - N/A   Overcast
7:15 PM 57.2 °F 48.2 °F 72% 30.39 in 10.0 mi Calm Calm - N/A   Overcast
7:35 PM 57.2 °F 48.2 °F 72% 30.39 in 10.0 mi SE 4.6 mph - N/A   Mostly Cloudy
7:55 PM 55.4 °F 48.2 °F 77% 30.38 in 9.0 mi Calm Calm - 0.01 in   Overcast
8:15 PM 55.4 °F 48.2 °F 77% 30.38 in 10.0 mi SW 3.5 mph - 0.01 in   Overcast
8:35 PM 55.4 °F 48.2 °F 77% 30.38 in 10.0 mi SE 5.8 mph - 0.01 in   Overcast
8:55 PM 55.4 °F 48.2 °F 77% 30.38 in 10.0 mi Calm Calm - 0.01 in   Overcast
9:15 PM 55.4 °F 48.2 °F 77% 30.37 in 10.0 mi Calm Calm - N/A   Overcast
9:35 PM 55.4 °F 48.2 °F 77% 30.38 in 10.0 mi North 3.5 mph - N/A   Overcast
9:55 PM 55.4 °F 50.0 °F 82% 30.38 in 10.0 mi East 3.5 mph - N/A   Overcast
10:15 PM 55.4 °F 48.2 °F 77% 30.37 in 10.0 mi Calm Calm - N/A   Mostly Cloudy
10:35 PM 55.4 °F 48.2 °F 77% 30.37 in 10.0 mi Calm Calm - N/A   Mostly Cloudy
10:55 PM 55.4 °F 48.2 °F 77% 30.37 in 10.0 mi NNE 3.5 mph - N/A   Mostly Cloudy
11:15 PM 55.4 °F 48.2 °F 77% 30.37 in 10.0 mi Calm Calm - N/A   Partly Cloudy
11:55 PM 55.4 °F 48.2 °F 77% 30.36 in 10.0 mi Calm Calm - N/A   Clear